Weather at Rush City Regional Airport

Public forecast

Using degrees Fahrenheit for public forecast. Weather courtesy of forecast.io.

Current aviation weather report (METAR) for Rush City Regional Airport

Retrieved 2021/05/12 05:35 UTC (0 seconds ago):

KROS 120535Z AUTO 00000KT 10SM SCT110 04/M02 A3038 RMK AO2 T00411023

Closest aviation forecast (TAF) to Rush City Regional Airport

Forecast is more than 12 hours old.

Closest forecast is Anoka County-Blaine (Janes Field) Airport, 34.9 nm (64.7 km) SSW. Retrieved 2018/02/05 00:21 UTC (3 years ago):

TAF KANE 052320Z 0600/0624 28008KT P6SM FEW025 FM060300 30005KT P6SM FEW250 FM061600 21005KT P6SM SCT250 AMD NOT SKED